EW7961 Weather Reports


Display with metric or nautical units.
time (UTC)temp
F
wind
direction
speed
MPH
gust
MPH
rain 1hr
in
rain 24hr
in
rain mn
in
humidity
%
barometer
mb
20260903090528 82 279 1.0 3.0 0.00 0.00 0.00 69 1015.4
20260903085528 82 289 1.0 2.0 0.00 0.00 0.00 70 1015.4
20260903084528 82 279 1.0 2.0 0.00 0.00 0.00 70 1015.3
20260903083529 82 277 1.0 2.0 0.00 0.00 0.00 70 1015.3
20260903082530 83 292 1.0 2.0 0.00 0.00 0.00 70 1015.3
20260903081538 83 284 1.0 2.0 0.00 0.00 0.00 70 1015.3
20260903080609 83 276 1.0 2.0 0.00 0.00 0.00 70 1015.3
20260903075529 83 289 1.0 2.0 0.00 0.00 0.00 70 1015.3
20260903074614 83 289 1.0 2.0 0.00 0.00 0.00 69 1015.2
20260903073609 83 285 1.0 2.0 0.00 0.00 0.00 69 1015.3
20260903072529 84 281 2.0 3.0 0.00 0.00 0.00 68 1015.3
20260903071522 84 285 1.0 2.0 0.00 0.00 0.00 68 1015.3
20260903070518 84 284 1.0 2.0 0.00 0.00 0.00 67 1015.2
20260903065518 84 283 1.0 2.0 0.00 0.00 0.00 67 1015.2
20260903064559 84 289 1.0 2.0 0.00 0.00 0.00 67 1015.3
20260903063519 84 291 1.0 2.0 0.00 0.00 0.00 67 1015.3
20260903062518 84 289 1.0 2.0 0.00 0.00 0.00 67 1015.4
20260903061519 85 290 1.0 2.0 0.00 0.00 0.00 66 1015.3
20260903060519 85 285 1.0 3.0 0.00 0.00 0.00 66 1015.3
20260903055518 85 292 1.0 2.0 0.00 0.00 0.00 66 1015.3
20260903054522 85 304 1.0 2.0 0.00 0.00 0.00 65 1015.3
20260903053522 85 292 1.0 2.0 0.00 0.00 0.00 65 1015.3
20260903052519 85 292 1.0 2.0 0.00 0.00 0.00 65 1015.3
20260903051519 86 294 0.0 1.0 0.00 0.00 0.00 64 1015.2
20260903050519 86 296 1.0 2.0 0.00 0.00 0.00 64 1015.2
20260903045516 86 301 1.0 1.0 0.00 0.00 0.00 63 1015.2
20260903044517 86 287 1.0 2.0 0.00 0.00 0.00 63 1015.1
20260903043600 87 292 1.0 3.0 0.00 0.00 0.00 62 1015.1
20260903042520 87 291 1.0 2.0 0.00 0.00 0.00 62 1015.1
20260903041517 87 291 1.0 2.0 0.00 0.00 0.00 61 1015.0
20260903040517 87 288 1.0 3.0 0.00 0.00 0.00 61 1015.1
20260903035557 88 294 1.0 2.0 0.00 0.00 0.00 61 1015.1
20260903034521 88 296 1.0 2.0 0.00 0.00 0.00 60 1015.1
20260903033518 88 297 1.0 2.0 0.00 0.00 0.00 60 1015.1
20260903032518 88 293 1.0 3.0 0.00 0.00 0.00 59 1015.1
20260903031517 89 298 1.0 3.0 0.00 0.00 0.00 59 1015.1
20260903030518 89 297 1.0 2.0 0.00 0.00 0.00 59 1015.1
20260903025521 89 294 1.0 3.0 0.00 0.00 0.00 59 1015.0
20260903024518 89 294 1.0 2.0 0.00 0.00 0.00 59 1015.0
20260903023518 89 296 1.0 2.0 0.00 0.00 0.00 58 1015.0
20260903022518 90 290 1.0 3.0 0.00 0.00 0.00 58 1014.9
20260903021558 90 283 1.0 2.0 0.00 0.00 0.00 57 1014.8
20260903020518 90 290 1.0 3.0 0.00 0.00 0.00 57 1014.8
20260903015518 91 290 1.0 2.0 0.00 0.00 0.00 56 1014.7
20260903014519 91 289 2.0 3.0 0.00 0.00 0.00 55 1014.5
20260903013519 91 295 1.0 4.0 0.00 0.00 0.00 54 1014.4
20260903012519 92 294 1.0 4.0 0.00 0.00 0.00 53 1014.3
20260903011519 92 292 1.0 6.0 0.00 0.00 0.00 52 1014.2
20260903010519 93 298 1.0 3.0 0.00 0.00 0.00 51 1014.1
20260903005520 93 300 1.0 2.0 0.00 0.00 0.00 50 1014.1
20260903004519 94 299 1.0 2.0 0.00 0.00 0.00 48 1014.0
20260903003600 94 297 1.0 2.0 0.00 0.00 0.00 46 1014.0
20260903002520 95 295 0.0 2.0 0.00 0.00 0.00 45 1013.9
20260903001557 95 293 1.0 2.0 0.00 0.00 0.00 43 1013.9
20260903000557 96 286 0.0 4.0 0.00 0.00 0.00 42 1013.9
20260902235520 97 299 1.0 2.0 0.00 0.00 0.00 41 1013.8
20260902234520 97 296 1.0 2.0 0.00 0.00 0.00 40 1013.7
20260902233517 98 295 1.0 5.0 0.00 0.00 0.00 39 1013.7
20260902232517 98 300 1.0 4.0 0.00 0.00 0.00 39 1013.7
20260902231517 99 299 1.0 4.0 0.00 0.00 0.00 38 1013.8
20260902230521 99 293 2.0 4.0 0.00 0.00 0.00 38 1013.7
20260902225518 100 296 1.0 5.0 0.00 0.00 0.00 38 1013.7
20260902224558 100 299 1.0 4.0 0.00 0.00 0.00 37 1013.7
20260902223518 101 295 2.0 4.0 0.00 0.00 0.00 37 1013.7
20260902222518 102 294 2.0 4.0 0.00 0.00 0.00 36 1013.7
20260902221521 104 290 1.0 3.0 0.00 0.00 0.00 35 1013.7
20260902220518 104 298 1.0 5.0 0.00 0.00 0.00 34 1013.8
20260902215518 105 287 1.0 4.0 0.00 0.00 0.00 34 1013.8
20260902214519 104 289 1.0 3.0 0.00 0.00 0.00 36 1013.9
20260902213519 104 292 1.0 3.0 0.00 0.00 0.00 37 1014.0
20260902212519 103 288 2.0 3.0 0.00 0.00 0.00 37 1014.1
20260902211519 102 289 2.0 3.0 0.00 0.00 0.00 39 1014.3
20260902210518 101 286 2.0 4.0 0.00 0.00 0.00 38 1014.3
20260902204523 101 296 3.0 6.0 0.00 0.00 0.00 38 1014.5
20260902203522 101 290 2.0 5.0 0.00 0.00 0.00 39 1014.6
20260902202603 100 300 1.0 4.0 0.00 0.00 0.00 40 1014.7
20260902201523 99 287 2.0 3.0 0.00 0.00 0.00 42 1014.8
20260902200523 99 301 1.0 3.0 0.00 0.00 0.00 42 1014.9
20260902195522 99 291 1.0 3.0 0.00 0.00 0.00 43 1015.1
20260902194602 100 282 2.0 4.0 0.00 0.00 0.00 42 1015.1
20260902193523 99 298 2.0 5.0 0.00 0.00 0.00 43 1015.2
20260902192523 99 294 1.0 3.0 0.00 0.00 0.00 43 1015.3
20260902191523 99 295 3.0 4.0 0.00 0.00 0.00 42 1015.4
20260902190523 99 290 2.0 3.0 0.00 0.00 0.00 43 1015.6
20260902185604 99 290 2.0 4.0 0.00 0.00 0.00 43 1015.7
20260902184524 98 293 1.0 3.0 0.00 0.00 0.00 42 1015.7
20260902183604 98 289 2.0 3.0 0.00 0.00 0.00 45 1015.8
20260902182524 98 300 2.0 3.0 0.00 0.00 0.00 45 1015.9
20260902181604 98 288 2.0 4.0 0.00 0.00 0.00 45 1015.9
20260902180524 97 290 2.0 4.0 0.00 0.00 0.00 45 1016.1
20260902175524 97 289 2.0 3.0 0.00 0.00 0.00 47 1016.2
20260902174524 96 297 2.0 4.0 0.00 0.00 0.00 47 1016.3
20260902173524 96 287 2.0 4.0 0.00 0.00 0.00 47 1016.5
20260902172525 96 295 2.0 3.0 0.00 0.00 0.00 47 1016.6
20260902171524 96 309 2.0 4.0 0.00 0.00 0.00 47 1016.7
20260902170525 95 282 2.0 3.0 0.00 0.00 0.00 46 1016.9
20260902165605 95 292 2.0 4.0 0.00 0.00 0.00 48 1016.9
20260902164525 94 290 2.0 3.0 0.00 0.00 0.00 48 1017.0
20260902163525 94 291 2.0 3.0 0.00 0.00 0.00 49 1017.1
20260902162525 94 280 2.0 3.0 0.00 0.00 0.00 49 1017.1
20260902161526 93 273 2.0 3.0 0.00 0.00 0.00 49 1017.2
20260902160606 93 281 2.0 4.0 0.00 0.00 0.00 49 1017.3
20260902155525 93 278 2.0 4.0 0.00 0.00 0.00 49 1017.3
20260902154606 92 279 2.0 4.0 0.00 0.00 0.00 51 1017.3
20260902153521 91 280 2.0 5.0 0.00 0.00 0.00 53 1017.2
20260902152526 91 280 2.0 5.0 0.00 0.00 0.00 54 1017.2
20260902151526 90 284 1.0 2.0 0.00 0.00 0.00 56 1017.2
20260902150526 89 285 2.0 4.0 0.00 0.00 0.00 56 1017.2
20260902145526 89 292 2.0 4.0 0.00 0.00 0.00 58 1017.3
20260902144527 88 287 1.0 2.0 0.00 0.00 0.00 59 1017.4
20260902143527 87 276 2.0 3.0 0.00 0.00 0.00 61 1017.3
20260902142527 87 281 1.0 2.0 0.00 0.00 0.00 62 1017.4
20260902141526 86 284 1.0 2.0 0.00 0.00 0.00 64 1017.5
20260902140527 85 270 2.0 3.0 0.00 0.00 0.00 65 1017.5
20260902135527 85 283 2.0 4.0 0.00 0.00 0.00 65 1017.6
20260902134542 84 277 2.0 3.0 0.00 0.00 0.00 66 1017.7
20260902133622 84 277 2.0 2.0 0.00 0.00 0.00 68 1017.7
20260902132555 83 269 1.0 3.0 0.00 0.00 0.00 69 1017.8
20260902131527 83 277 2.0 2.0 0.00 0.00 0.00 70 1017.8
20260902130527 83 273 2.0 3.0 0.00 0.00 0.00 70 1017.7
20260902125528 83 274 2.0 2.0 0.00 0.00 0.00 71 1017.7
20260902124528 82 281 2.0 2.0 0.00 0.00 0.00 72 1017.7
20260902123543 81 270 2.0 2.0 0.00 0.00 0.00 74 1017.6
20260902122703 81 271 2.0 2.0 0.00 0.00 0.00 75 1017.5
20260902121528 80 272 2.0 2.0 0.00 0.00 0.00 75 1017.5
20260902120528 80 277 1.0 2.0 0.00 0.00 0.00 75 1017.4
20260902115609 80 282 1.0 2.0 0.00 0.00 0.00 75 1017.3
20260902114529 80 277 1.0 2.0 0.00 0.00 0.00 75 1017.2
20260902113529 80 273 1.0 2.0 0.00 0.00 0.00 75 1017.2
20260902112529 81 280 1.0 2.0 0.00 0.00 0.00 74 1017.1
20260902111559 81 297 1.0 2.0 0.00 0.00 0.00 74 1017.1
20260902110544 81 276 1.0 1.0 0.00 0.00 0.00 73 1017.0
20260902105649 81 282 1.0 2.0 0.00 0.00 0.00 73 1017.0
20260902104529 81 282 1.0 2.0 0.00 0.00 0.00 73 1016.9
20260902103530 81 277 1.0 2.0 0.00 0.00 0.00 72 1016.9
20260902102529 82 271 2.0 2.0 0.00 0.00 0.00 72 1016.9
20260902101530 82 277 1.0 2.0 0.00 0.00 0.00 72 1016.8
20260902100530 82 276 1.0 2.0 0.00 0.00 0.00 71 1016.7
20260902095545 82 269 1.0 3.0 0.00 0.00 0.00 71 1016.7
20260902094530 82 294 1.0 2.0 0.00 0.00 0.00 71 1016.6
20260902093545 82 286 1.0 2.0 0.00 0.00 0.00 71 1016.6
20260902092530 82 276 1.0 2.0 0.00 0.00 0.00 71 1016.5
20260902091531 82 277 2.0 2.0 0.00 0.00 0.00 71 1016.5